Location: Fort Worth, Tx
(32.7431°N, 97.3695°W)
Time: 19:27:17
(UTC-04:00)

Transit 4A - Pass Details

Date: 03 March 2024
Orbit: 871 x 972 km, 66.8° (Epoch: 22 April)

Event Time Altitude Azimuth Distance (km) Brightness Sun altitude
Rises 10:33:45 0° 333° (NNW) 3,471 10.4 30.7°
Reaches altitude 10° 10:36:15 10° 333° (NNW) 2,524 9.8 31.1°
Maximum altitude 10:42:04 83° 247° (WSW) 881 8.3 32.2°
Drops below altitude 10° 10:47:53 10° 159° (SSE) 2,516 11.1 33.2°
Sets 10:50:21 0° 158° (SSE) 3,459 11.6 33.6°
